Middleton, WI

3:18 PM CST on February 20, 2017 (GMT -0600)
Middleton

Weather History for KC29 - December, 2013

Change the Weather History Date:

Saturday, December 7, 2013

  Actual Average (KMSN) Record (KMSN)
Temperature  
Mean Temperature 9 °F -  
Max Temperature 16 °F 31 °F 60 °F (1916)
Min Temperature 2 °F 17 °F -15 °F (1972)
Degree Days  
Heating Degree Days 56    
Moisture  
Dew Point -1 °F    
Average Humidity 66    
Maximum Humidity 77    
Minimum Humidity 41    
Precipitation  
Precipitation 0.00 in - - ()
Sea Level Pressure  
Sea Level Pressure 30.60 in    
Wind  
Wind Speed 6 mph (WNW)    
Max Wind Speed 9 mph    
Max Gust Speed -    
Visibility 10 miles    
Events      
Averages and records for this station are not official NWS values.
T = Trace of Precipitation, MM = Missing Value Source: NWS Daily Summary

Daily Weather History Graph

Daily Weather History Graph

Search for Another Location

Airport or City:

Trip Planner

Search our weather history database for the weather conditions in past years. The results will help you decide how hot, cold, wet, or windy it might be!

Date:

Astronomy

Dec. 07, 2013 Rise Set
Actual Time 7:16 AM CST 4:23 PM CST
Civil Twilight 6:44 AM CST 4:55 PM CST
Nautical Twilight 6:08 AM CST 5:30 PM CST
Astronomical Twilight 5:34 AM CST 6:05 PM CST
Moon 10:55 AM CST (12/7) 10:10 PM CST (12/7)
Length of Visible Light 10h 10m
Length of Day
9h 06m
Waxing Crescent, 29% of the Moon is Illuminated
Dec 7
Waxing Crescent
Dec 9
First Quarter
Dec 17
Full
Dec 25
Last Quarter
Jan 1
New

Hourly Weather History & Observations

Time (CST) Temp. Windchill Dew Point Humidity Pressure Visibility Wind Dir Wind Speed Gust Speed Precip Events Conditions
12:15 AM 7.7 °F -4.8 °F 0.5 °F 72% 30.54 in 10.0 mi WNW 8.1 mph - N/A   Clear
12:35 AM 7.5 °F -3.9 °F 0.5 °F 73% 30.54 in 10.0 mi WNW 6.9 mph - N/A   Clear
12:55 AM 7.3 °F -4.1 °F 0.5 °F 74% 30.54 in 10.0 mi WNW 6.9 mph - N/A   Clear
1:15 AM 7.0 °F -3.3 °F 0.5 °F 75% 30.55 in 10.0 mi NW 5.8 mph - N/A   Clear
1:35 AM 7.3 °F -4.1 °F 0.5 °F 74% 30.55 in 10.0 mi NW 6.9 mph - N/A   Clear
1:55 AM 6.8 °F -4.8 °F 0.3 °F 75% 30.56 in 10.0 mi NW 6.9 mph - N/A   Clear
2:15 AM 6.8 °F -4.8 °F 0.3 °F 75% 30.57 in 10.0 mi NW 6.9 mph - N/A   Clear
2:35 AM 6.4 °F -3.9 °F 0.3 °F 76% 30.57 in 10.0 mi NW 5.8 mph - N/A   Clear
2:55 AM 6.3 °F -4.1 °F -0.2 °F 75% 30.57 in 10.0 mi NW 5.8 mph - N/A   Scattered Clouds
3:15 AM 5.9 °F -4.5 °F -0.4 °F 75% 30.58 in 10.0 mi NW 5.8 mph - N/A   Clear
3:35 AM 5.9 °F -7.0 °F -0.6 °F 75% 30.58 in 10.0 mi NNW 8.1 mph - N/A   Clear
3:55 AM 5.5 °F -3.4 °F -0.9 °F 75% 30.58 in 10.0 mi NW 4.6 mph - N/A   Clear
4:15 AM 5.5 °F -7.4 °F -1.5 °F 73% 30.59 in 10.0 mi WNW 8.1 mph - N/A   Clear
4:35 AM 5.0 °F -8.1 °F -2.2 °F 72% 30.60 in 10.0 mi NW 8.1 mph - N/A   Clear
4:55 AM 4.8 °F -5.8 °F -1.8 °F 74% 30.60 in 10.0 mi WNW 5.8 mph - N/A   Clear
5:15 AM 4.5 °F -8.7 °F -1.7 °F 76% 30.60 in 10.0 mi NW 8.1 mph - N/A   Clear
5:35 AM 4.1 °F -9.2 °F -1.8 °F 76% 30.60 in 10.0 mi NW 8.1 mph - N/A   Clear
5:55 AM 3.9 °F -9.4 °F -2.2 °F 76% 30.60 in 10.0 mi NW 8.1 mph - N/A   Clear
6:15 AM 3.6 °F -7.3 °F -2.2 °F 77% 30.62 in 10.0 mi NW 5.8 mph - N/A   Clear
6:35 AM 3.0 °F -6.4 °F -3.1 °F 76% 30.62 in 10.0 mi WNW 4.6 mph - N/A   Clear
6:55 AM 2.3 °F -8.8 °F -3.3 °F 77% 30.62 in 10.0 mi WNW 5.8 mph - N/A   Clear
7:15 AM 2.3 °F -7.2 °F -3.8 °F 76% 30.64 in 10.0 mi WNW 4.6 mph - N/A   Clear
7:35 AM 2.3 °F -8.8 °F -4.0 °F 75% 30.64 in 10.0 mi WNW 5.8 mph - N/A   Clear
7:55 AM 3.2 °F -11.3 °F -3.6 °F 73% 30.64 in 10.0 mi WNW 9.2 mph - N/A   Clear
8:15 AM 3.9 °F -6.9 °F -3.1 °F 73% 30.65 in 10.0 mi WNW 5.8 mph - N/A   Clear
8:35 AM 4.6 °F -7.4 °F -2.6 °F 72% 30.65 in 10.0 mi West 6.9 mph - N/A   Clear
8:55 AM 4.8 °F -8.3 °F -2.9 °F 70% 30.66 in 10.0 mi WNW 8.1 mph - N/A   Clear
9:15 AM 5.9 °F -5.8 °F -2.2 °F 69% 30.66 in 10.0 mi WNW 6.9 mph - N/A   Clear
9:35 AM 6.4 °F -3.9 °F -2.0 °F 68% 30.66 in 10.0 mi WNW 5.8 mph - N/A   Clear
9:55 AM 7.2 °F -3.0 °F -1.5 °F 68% 30.66 in 10.0 mi NNW 5.8 mph - N/A   Clear
10:15 AM 9.0 °F 0.6 °F -0.2 °F 66% 30.67 in 10.0 mi WNW 4.6 mph - N/A   Clear
10:35 AM 9.5 °F -1.5 °F -0.2 °F 65% 30.67 in 10.0 mi NNW 6.9 mph - N/A   Clear
10:55 AM 10.4 °F 0.8 °F -0.2 °F 62% 30.67 in 10.0 mi WNW 5.8 mph - N/A   Clear
11:15 AM 11.1 °F 1.7 °F -0.6 °F 59% 30.66 in 10.0 mi WNW 5.8 mph - N/A   Clear
11:35 AM 12.0 °F 5.9 °F -0.4 °F 58% 30.65 in 10.0 mi WNW 3.5 mph - N/A   Clear
11:55 AM 12.7 °F 2.4 °F -0.4 °F 56% 30.65 in 10.0 mi WNW 6.9 mph - N/A   Clear
12:15 PM 13.6 °F 4.6 °F -0.6 °F 53% 30.64 in 10.0 mi WNW 5.8 mph - N/A   Clear
12:35 PM 14.7 °F 5.9 °F -0.0 °F 52% 30.63 in 10.0 mi WNW 5.8 mph - N/A   Clear
12:55 PM 15.4 °F 5.6 °F -0.6 °F 49% 30.63 in 10.0 mi West 6.9 mph - N/A   Clear
1:15 PM 14.9 °F 6.1 °F -1.7 °F 48% 30.63 in 10.0 mi West 5.8 mph - N/A   Clear
1:35 PM 15.6 °F 4.9 °F -2.6 °F 45% 30.61 in 10.0 mi WNW 8.1 mph - N/A   Clear
1:55 PM 16.0 °F 8.8 °F -2.2 °F 45% 30.61 in 10.0 mi West 4.6 mph - N/A   Clear
2:15 PM 16.2 °F 5.5 °F -2.9 °F 43% 30.61 in 10.0 mi West 8.1 mph - N/A   Clear
2:35 PM 16.2 °F 7.6 °F -3.6 °F 42% 30.61 in 10.0 mi West 5.8 mph - N/A   Clear
2:55 PM 16.2 °F 4.7 °F -3.8 °F 41% 30.61 in 10.0 mi West 9.2 mph - N/A   Clear
3:15 PM 15.1 °F 4.2 °F -3.8 °F 43% 30.61 in 10.0 mi West 8.1 mph - N/A   Clear
3:35 PM 14.9 °F 3.1 °F -3.8 °F 43% 30.62 in 10.0 mi West 9.2 mph - N/A   Clear
3:55 PM 14.0 °F 3.9 °F -2.9 °F 47% 30.61 in 10.0 mi West 6.9 mph - N/A   Clear
4:15 PM 12.9 °F 2.6 °F -2.6 °F 50% 30.61 in 10.0 mi WNW 6.9 mph - N/A   Clear
4:35 PM 11.3 °F 1.9 °F -1.7 °F 56% 30.60 in 10.0 mi West 5.8 mph - N/A   Clear
4:55 PM 11.3 °F 3.3 °F -1.5 °F 57% 30.60 in 10.0 mi West 4.6 mph - N/A   Clear
5:15 PM 10.6 °F 4.3 °F -1.8 °F 57% 30.60 in 10.0 mi West 3.5 mph - N/A   Clear
5:35 PM 10.6 °F - -1.5 °F 58% 30.60 in 10.0 mi Calm Calm - N/A   Clear
5:55 PM 10.0 °F - -1.1 °F 61% 30.59 in 10.0 mi Calm Calm - N/A   Clear
6:10 PM 10.8 °F - -2.2 °F 56% 30.59 in 10.0 mi Calm Calm - N/A   Clear
6:35 PM 9.1 °F - 1.9 °F 73% 30.58 in 10.0 mi Calm Calm - N/A   Clear
6:55 PM 7.7 °F - 0.3 °F 72% 30.57 in 10.0 mi Calm Calm - N/A   Clear
7:15 PM 6.6 °F - 0.3 °F 75% 30.57 in 10.0 mi Calm Calm - N/A   Clear
7:35 PM 6.8 °F - 0.3 °F 75% 30.57 in 10.0 mi Calm Calm - N/A   Clear
7:55 PM 6.6 °F - -0.0 °F 74% 30.58 in 10.0 mi Calm Calm - N/A   Clear
8:15 PM 7.2 °F - -0.2 °F 72% 30.57 in 10.0 mi Calm Calm - N/A   Clear
8:35 PM 7.3 °F - 1.4 °F 77% 30.56 in 10.0 mi Calm Calm - N/A   Clear
8:55 PM 6.8 °F - 0.3 °F 75% 30.57 in 10.0 mi Calm Calm - N/A   Clear
9:15 PM 7.7 °F - 0.5 °F 72% 30.57 in 10.0 mi Calm Calm - N/A   Clear
9:35 PM 7.5 °F - 1.0 °F 75% 30.57 in 10.0 mi Calm Calm - N/A   Clear
9:55 PM 7.5 °F - 0.9 °F 74% 30.56 in 10.0 mi Calm Calm - N/A   Clear
10:15 PM 9.5 °F - 1.9 °F 71% 30.56 in 10.0 mi Calm Calm - N/A   Clear
10:35 PM 8.6 °F - 1.4 °F 73% 30.57 in 10.0 mi Calm Calm - N/A   Clear
10:55 PM 9.5 °F - 0.7 °F 67% 30.57 in 10.0 mi Calm Calm - N/A   Scattered Clouds
11:15 PM 9.5 °F - -1.3 °F 62% 30.59 in 10.0 mi Calm Calm - N/A   Clear
11:35 PM 8.6 °F - 1.8 °F 74% 30.58 in 10.0 mi Calm Calm - N/A   Scattered Clouds
11:55 PM 10.4 °F - -1.3 °F 59% 30.58 in 10.0 mi Calm Calm - N/A   Mostly Cloudy